Time,TemperatureF,DewpointF,PressureIn,WindDirection,WindDirectionDegrees,WindSpeedMPH,WindSpeedGustMPH,Humidity,HourlyPrecipIn,Conditions,Clouds,dailyrainin,SoftwareType,DateUTC
2013-07-29 00:02:00,62.0,45.0,-100.00,SE,143,17.0,23.0,55,0.00,,,-99.99,,2013-07-29 06:02:00,
2013-07-29 00:43:00,62.0,44.0,-100.00,SSE,148,18.0,24.0,53,0.00,,,-99.99,,2013-07-29 06:43:00,
2013-07-29 01:33:00,61.0,43.0,-100.00,SE,145,17.0,25.0,51,0.00,,,-99.99,,2013-07-29 07:33:00,
2013-07-29 01:43:00,61.0,43.0,-100.00,SSE,147,17.0,24.0,51,0.00,,,-99.99,,2013-07-29 07:43:00,
2013-07-29 02:02:00,58.0,44.0,-100.00,SSW,196,11.0,15.0,60,0.00,,,-99.99,,2013-07-29 08:02:00,
2013-07-29 02:42:00,55.0,44.0,-100.00,South,181,8.0,11.0,64,0.00,,,-99.99,,2013-07-29 08:42:00,
2013-07-29 02:52:00,57.0,43.0,-100.00,SSE,168,12.0,16.0,59,0.00,,,-99.99,,2013-07-29 08:52:00,
2013-07-29 03:02:00,58.0,43.0,-100.00,SSE,162,13.0,18.0,58,0.00,,,-99.99,,2013-07-29 09:02:00,
2013-07-29 03:22:00,58.0,43.0,-100.00,SSE,158,16.0,21.0,56,0.00,,,-99.99,,2013-07-29 09:22:00,
2013-07-29 03:43:00,58.0,42.0,-100.00,SSE,155,13.0,17.0,55,0.00,,,-99.99,,2013-07-29 09:43:00,
2013-07-29 04:02:00,57.0,42.0,-100.00,SE,138,10.0,14.0,57,0.00,,,-99.99,,2013-07-29 10:02:00,
2013-07-29 04:13:00,58.0,42.0,-100.00,SE,140,10.0,15.0,57,0.00,,,-99.99,,2013-07-29 10:13:00,
2013-07-29 05:03:00,57.0,42.0,-100.00,SSE,155,16.0,22.0,58,0.00,,,-99.99,,2013-07-29 11:03:00,
2013-07-29 05:44:00,56.0,42.0,-100.00,SSE,161,15.0,19.0,59,0.00,,,-99.99,,2013-07-29 11:44:00,
2013-07-29 06:06:00,56.0,42.0,-100.00,SSE,161,13.0,18.0,58,0.00,,,-99.99,,2013-07-29 12:06:00,
2013-07-29 06:44:00,57.0,42.0,-100.00,South,188,7.0,11.0,56,0.00,,,-99.99,,2013-07-29 12:44:00,
2013-07-29 07:03:00,58.0,41.0,-100.00,SSW,192,9.0,12.0,54,0.00,,,-99.99,,2013-07-29 13:03:00,
2013-07-29 07:43:00,58.0,41.0,-100.00,SSW,192,14.0,19.0,54,0.00,,,-99.99,,2013-07-29 13:43:00,
2013-07-29 08:43:00,60.0,41.0,-100.00,South,172,18.0,24.0,50,0.00,,,-99.99,,2013-07-29 14:43:00,
2013-07-29 08:54:00,60.0,42.0,-100.00,South,172,18.0,24.0,50,0.00,,,-99.99,,2013-07-29 14:54:00,
2013-07-29 09:36:00,63.0,42.0,-100.00,South,172,20.0,26.0,47,0.00,,,-99.99,,2013-07-29 15:36:00,
2013-07-29 09:44:00,63.0,41.0,-100.00,South,178,21.0,28.0,44,0.00,,,-99.99,,2013-07-29 15:44:00,
2013-07-29 10:44:00,65.0,42.0,-100.00,SSE,167,21.0,26.0,42,0.00,,,-99.99,,2013-07-29 16:44:00,
2013-07-29 11:37:00,69.0,37.0,-100.00,South,174,17.0,26.0,30,0.00,,,-99.99,,2013-07-29 17:37:00,
2013-07-29 11:43:00,69.0,37.0,-100.00,SSW,199,17.0,26.0,31,0.00,,,-99.99,,2013-07-29 17:43:00,
2013-07-29 12:05:00,69.0,37.0,-100.00,SSW,199,14.0,22.0,31,0.00,,,-99.99,,2013-07-29 18:05:00,
2013-07-29 12:34:00,69.0,35.0,-100.00,SSW,192,14.0,22.0,29,0.00,,,-99.99,,2013-07-29 18:34:00,
2013-07-29 12:43:00,69.0,36.0,-100.00,SSW,212,14.0,19.0,30,0.00,,,-99.99,,2013-07-29 18:43:00,
2013-07-29 13:44:00,72.0,31.0,-100.00,SSW,212,11.0,17.0,22,0.00,,,-99.99,,2013-07-29 19:44:00,
2013-07-29 14:46:00,73.0,29.0,-100.00,South,185,4.0,9.0,20,0.00,,,-99.99,,2013-07-29 20:46:00,
2013-07-29 15:45:00,69.0,35.0,-100.00,South,181,12.0,26.0,29,-99.99,,,-99.99,,2013-07-29 21:45:00,
2013-07-29 16:17:00,-999.0,-99.9,-100.00,ESE,103,8.0,12.0,-999,-99.99,,,-99.99,,2013-07-29 22:17:00,
2013-07-29 16:43:00,68.0,35.0,-100.00,SE,127,15.0,21.0,29,0.00,,,-99.99,,2013-07-29 22:43:00,
2013-07-29 17:04:00,68.0,34.0,-100.00,ESE,119,9.0,14.0,28,0.00,,,-99.99,,2013-07-29 23:04:00,
2013-07-29 18:23:00,62.0,39.0,-100.00,SE,137,20.0,26.0,42,0.00,,,-99.99,,2013-07-30 00:23:00,
2013-07-29 18:34:00,62.0,40.0,-100.00,SE,126,16.0,26.0,44,0.00,,,-99.99,,2013-07-30 00:34:00,
2013-07-29 18:45:00,62.0,40.0,-100.00,SE,130,12.0,17.0,44,0.00,,,-99.99,,2013-07-30 00:45:00,
2013-07-29 19:05:00,64.0,39.0,-100.00,ESE,106,14.0,21.0,40,0.00,,,-99.99,,2013-07-30 01:05:00,
2013-07-29 21:34:00,57.0,40.0,-100.00,SE,145,4.0,9.0,53,0.00,,,-99.99,,2013-07-30 03:34:00,
2013-07-29 21:43:00,56.0,40.0,-100.00,SSE,161,3.0,6.0,55,0.00,,,-99.99,,2013-07-30 03:43:00,
2013-07-29 22:43:00,57.0,39.0,-100.00,ESE,109,7.0,11.0,51,0.00,,,-99.99,,2013-07-30 04:43:00,
2013-07-29 23:03:00,56.0,39.0,-100.00,North,356,5.0,9.0,52,0.00,,,-99.99,,2013-07-30 05:03:00,
2013-07-29 23:32:00,56.0,42.0,-100.00,NW,305,1.0,1.0,58,0.00,,,-99.99,,2013-07-30 05:32:00,